Total_Precipitation_Accumulation
0.21 0.29 0.32 0.30 0.30 0.32 0.35 0.39 0.49 0.53 0.66 0.75 0.69 0.75 0.82 0.71 0.57 0.57 0.50 0.50 0.49 0.46 0.39 0.37 0.38 0.39 0.46 0.60 0.72 0.83 0.96 1.10 1.23 1.26 1.26 1.27 1.24 1.28 1.27 1.19 1.15 1.22 1.13 1.08
0.26 0.31 0.34 0.34 0.33 0.29 0.27 0.25 0.28 0.40 0.60 0.61 0.58 0.63 0.69 0.67 0.63 0.63 0.61 0.45 0.38 0.40 0.37 0.34 0.32 0.34 0.37 0.51 0.67 0.79 0.92 1.01 1.06 1.14 1.20 1.16 1.11 1.09 1.10 1.13 1.12 1.13 1.08 1.07
0.35 0.40 0.47 0.52 0.41 0.40 0.39 0.34 0.36 0.56 0.68 0.56 0.55 0.56 0.57 0.53 0.53 0.56 0.55 0.54 0.47 0.45 0.42 0.35 0.31 0.35 0.40 0.45 0.58 0.76 0.86 0.89 0.96 1.10 1.17 1.12 1.01 1.02 1.06 1.07 1.08 1.06 1.01 1.00
0.38 0.54 0.75 0.57 0.33 0.29 0.30 0.34 0.33 0.42 0.48 0.46 0.48 0.47 0.50 0.54 0.50 0.47 0.37 0.36 0.42 0.47 0.48 0.46 0.42 0.45 0.49 0.51 0.57 0.73 0.87 0.93 0.98 1.11 1.18 1.16 1.10 1.04 1.03 1.02 1.03 1.06 1.01 0.98
0.48 0.59 0.62 0.50 0.35 0.35 0.39 0.42 0.30 0.34 0.39 0.39 0.45 0.48 0.56 0.45 0.36 0.42 0.34 0.34 0.35 0.39 0.46 0.58 0.61 0.60 0.64 0.68 0.63 0.69 0.83 0.94 1.05 1.19 1.22 1.20 1.19 1.14 1.12 1.09 1.05 1.04 1.03 1.03
0.50 0.69 0.77 0.60 0.40 0.43 0.53 0.78 0.51 0.43 0.48 0.47 0.43 0.65 0.72 0.43 0.31 0.46 0.40 0.37 0.35 0.38 0.47 0.56 0.60 0.58 0.62 0.68 0.74 0.77 0.86 0.96 1.07 1.16 1.25 1.24 1.27 1.29 1.24 1.21 1.13 1.06 1.09 1.12
0.55 0.72 0.79 0.55 0.42 0.50 0.88 1.06 0.62 0.53 0.52 0.55 0.56 0.58 0.51 0.40 0.37 0.45 0.38 0.37 0.37 0.42 0.57 0.61 0.58 0.60 0.69 0.71 0.77 0.82 0.91 1.01 1.14 1.26 1.28 1.28 1.34 1.37 1.33 1.29 1.29 1.20 1.13 1.14
0.75 0.96 1.00 0.59 0.53 0.74 0.83 0.62 0.57 0.54 0.49 0.51 0.50 0.44 0.36 0.33 0.33 0.36 0.37 0.38 0.49 0.61 0.70 0.70 0.71 0.81 0.89 0.91 0.87 0.90 1.00 1.09 1.23 1.37 1.22 1.19 1.39 1.43 1.41 1.43 1.43 1.37 1.31 1.22
0.90 0.98 0.83 0.68 0.72 0.80 0.67 0.62 0.55 0.47 0.45 0.43 0.45 0.41 0.37 0.34 0.30 0.33 0.40 0.42 0.53 0.67 0.73 0.73 0.81 0.96 1.13 1.14 1.07 1.05 1.13 1.22 1.26 1.30 1.40 1.46 1.47 1.49 1.48 1.45 1.45 1.40 1.38 1.32
0.99 0.97 0.87 0.77 0.75 0.74 0.66 0.59 0.47 0.38 0.39 0.41 0.45 0.48 0.43 0.41 0.40 0.37 0.41 0.45 0.50 0.64 0.69 0.79 0.88 1.05 1.25 1.30 1.28 1.29 1.33 1.37 1.38 1.38 1.43 1.56 1.68 1.63 1.54 1.44 1.46 1.48 1.44 1.46
1.11 1.07 0.94 0.81 0.70 0.65 0.56 0.51 0.45 0.41 0.38 0.39 0.44 0.49 0.47 0.52 0.50 0.43 0.46 0.48 0.54 0.70 0.82 0.86 0.90 1.00 1.16 1.31 1.45 1.51 1.51 1.49 1.49 1.50 1.55 1.60 1.61 1.58 1.53 1.45 1.37 1.43 1.46 1.47
1.23 1.00 0.89 0.82 0.70 0.68 0.55 0.48 0.47 0.44 0.39 0.39 0.40 0.40 0.42 0.49 0.54 0.49 0.54 0.63 0.61 0.66 0.80 0.87 0.93 1.04 1.18 1.38 1.62 1.82 1.76 1.62 1.58 1.58 1.62 1.61 1.61 1.44 1.23 1.16 1.11 1.07 1.12 1.12
0.93 0.82 0.80 0.70 0.64 0.67 0.62 0.57 0.55 0.53 0.44 0.44 0.49 0.41 0.38 0.45 0.49 0.47 0.49 0.66 0.74 0.69 0.74 0.85 0.89 1.07 1.24 1.40 1.63 1.86 1.90 1.83 1.68 1.60 1.57 1.54 1.56 1.56 1.45 1.28 1.22 1.09 0.96 0.90
0.83 0.89 0.85 0.69 0.63 0.65 0.67 0.61 0.50 0.53 0.48 0.44 0.48 0.51 0.46 0.42 0.46 0.49 0.49 0.60 0.68 0.69 0.72 0.77 0.82 0.89 1.11 1.42 1.69 1.79 1.80 1.76 1.67 1.60 1.52 1.47 1.47 1.49 1.45 1.44 1.43 1.31 1.11 0.98
0.80 0.93 0.89 0.69 0.65 0.69 0.64 0.59 0.58 0.62 0.51 0.45 0.46 0.58 0.64 0.54 0.51 0.55 0.55 0.57 0.61 0.66 0.71 0.75 0.83 0.87 1.00 1.31 1.63 1.74 1.69 1.59 1.54 1.53 1.56 1.57 1.56 1.57 1.55 1.55 1.55 1.53 1.34 1.16
0.83 0.80 0.76 0.65 0.61 0.66 0.61 0.62 0.67 0.65 0.52 0.51 0.51 0.62 0.77 0.70 0.61 0.63 0.65 0.70 0.73 0.71 0.74 0.81 0.86 0.89 1.00 1.23 1.51 1.67 1.73 1.64 1.59 1.53 1.52 1.61 1.69 1.62 1.59 1.65 1.62 1.54 1.45 1.23
0.92 0.84 0.75 0.65 0.63 0.68 0.69 0.69 0.71 0.71 0.73 0.76 0.71 0.76 0.84 0.77 0.74 0.74 0.73 0.77 0.85 0.86 0.89 0.94 0.97 1.01 1.11 1.28 1.46 1.51 1.54 1.48 1.42 1.32 1.30 1.37 1.48 1.52 1.53 1.63 1.60 1.49 1.36 1.20
1.02 0.93 0.83 0.71 0.68 0.71 0.74 0.76 0.78 0.82 0.88 0.88 0.86 0.91 1.02 1.03 1.06 1.02 0.91 0.84 0.87 0.94 1.02 1.07 1.07 1.14 1.24 1.31 1.43 1.43 1.47 1.44 1.34 1.27 1.27 1.31 1.36 1.41 1.50 1.56 1.52 1.44 1.27 1.08
1.06 0.96 0.85 0.76 0.75 0.79 0.87 0.89 0.86 0.85 0.86 0.85 0.90 0.98 1.10 1.21 1.22 1.16 1.06 1.02 1.06 1.14 1.20 1.20 1.19 1.08 1.16 1.28 1.44 1.54 1.52 1.49 1.48 1.44 1.34 1.37 1.39 1.44 1.50 1.44 1.38 1.38 1.28 1.13
1.08 1.02 0.96 0.95 0.92 0.91 0.91 0.90 0.90 0.82 0.76 0.77 0.86 0.96 1.07 1.20 1.25 1.22 1.17 1.15 1.20 1.33 1.35 1.31 1.14 1.08 1.12 1.25 1.43 1.45 1.50 1.49 1.45 1.38 1.32 1.30 1.33 1.42 1.44 1.33 1.23 1.22 1.18 1.07
1.22 1.19 1.20 1.16 1.11 1.05 0.99 0.95 0.89 0.84 0.80 0.82 0.92 1.05 1.13 1.22 1.27 1.33 1.38 1.36 1.26 1.21 1.15 1.15 1.06 1.06 1.10 1.20 1.30 1.35 1.45 1.46 1.45 1.38 1.30 1.20 1.16 1.19 1.19 1.14 1.06 1.03 1.04 1.03
1.27 1.17 1.11 1.04 0.96 0.93 0.89 0.86 0.78 0.74 0.76 0.83 0.89 0.96 1.05 1.12 1.20 1.22 1.26 1.37 1.31 1.24 1.11 1.05 1.04 1.09 1.11 1.13 1.12 1.24 1.33 1.32 1.28 1.20 1.10 1.03 1.00 1.01 0.98 0.91 0.87 0.85 0.86 0.88
1.22 1.03 0.93 0.87 0.79 0.74 0.70 0.65 0.61 0.63 0.69 0.75 0.85 0.99 1.13 1.16 1.21 1.27 1.23 1.10 1.07 1.04 0.99 0.97 0.96 1.01 0.99 0.97 1.03 1.09 1.14 1.15 1.12 1.08 1.04 0.98 0.92 0.95 0.92 0.82 0.78 0.76 0.77 0.77
1.04 0.86 0.77 0.71 0.62 0.58 0.57 0.54 0.50 0.51 0.57 0.64 0.73 0.86 1.06 1.20 1.18 1.07 1.08 1.02 0.90 0.80 0.78 0.78 0.73 0.76 0.80 0.80 0.87 0.94 0.98 0.98 0.95 0.91 0.85 0.81 0.79 0.84 0.80 0.74 0.70 0.69 0.71 0.69
0.89 0.80 0.71 0.64 0.60 0.58 0.53 0.49 0.48 0.48 0.53 0.63 0.68 0.72 0.87 1.12 1.24 1.05 0.86 0.73 0.70 0.64 0.61 0.61 0.58 0.60 0.60 0.61 0.65 0.75 0.84 0.88 0.88 0.85 0.76 0.73 0.73 0.75 0.71 0.67 0.64 0.64 0.64 0.65
0.73 0.72 0.72 0.67 0.64 0.64 0.61 0.60 0.62 0.65 0.76 0.92 0.92 0.79 0.81 0.91 0.96 0.88 0.75 0.60 0.56 0.58 0.52 0.50 0.48 0.45 0.41 0.41 0.46 0.58 0.64 0.69 0.75 0.74 0.70 0.68 0.68 0.67 0.67 0.67 0.63 0.60 0.60 0.61
0.66 0.67 0.71 0.70 0.66 0.65 0.67 0.69 0.75 0.83 0.97 1.21 1.26 1.01 0.88 0.87 0.82 0.76 0.72 0.65 0.60 0.61 0.56 0.49 0.46 0.43 0.40 0.41 0.43 0.49 0.53 0.56 0.62 0.65 0.64 0.62 0.63 0.66 0.64 0.63 0.65 0.61 0.57 0.56